Evansville, IN

3:36 AM CDT on May 24, 2018 (GMT -0500)
Evansville Regional

Weather History for KEVV - October, 2013

Change the Weather History Date:

Sunday, October 13, 2013

  Actual Average Record
Temperature  
Mean Temperature 64 °F 58 °F  
Max Temperature 76 °F 71 °F 91 °F (1989)
Min Temperature 52 °F 46 °F 25 °F (1988)
Degree Days  
Heating Degree Days 1 7  
Month to date heating degree days 23 79  
Since 1 July heating degree days 33 126  
Cooling Degree Days 0 1  
Month to date cooling degree days 55 20  
Year to date cooling degree days 1462 1386  
Growing Degree Days 15 (Base 50)    
Moisture  
Dew Point 49 °F    
Average Humidity 62    
Maximum Humidity 93    
Minimum Humidity 31    
Precipitation  
Precipitation 0.00 in 0.09 in 1.77 in (2014)
Month to date precipitation 4.27 1.31  
Year to date precipitation 42.41 35.28  
Snow  
Snow 0.00 in 0.00 in 0.00 in (2002)
Month to date snowfall 0.0 0.0  
Since 1 July snowfall 0.0 0.0  
Since 1 September snowfall 0.0 0.0  
Snow Depth 0.00 in    
Sea Level Pressure  
Sea Level Pressure 30.26 in    
Wind  
Wind Speed 7 mph (North)    
Max Wind Speed 14 mph    
Max Gust Speed 17 mph    
Visibility 10 miles    
Events      
T = Trace of Precipitation, MM = Missing Value Source: NWS Daily Summary

Daily Weather History Graph

Daily Weather History Graph

Search for Another Location

Airport or City:

Astronomy

Oct. 13, 2013 Rise Set
Actual Time 6:57 AM CDT 6:14 PM CDT
Civil Twilight 6:30 AM CDT 6:41 PM CDT
Nautical Twilight 6:00 AM CDT 7:11 PM CDT
Astronomical Twilight 5:29 AM CDT 7:42 PM CDT
Moon 3:01 PM CDT (10/13) 1:11 AM CDT (10/13)
Length of Visible Light 12h 10m
Length of Day
11h 17m
Waxing Gibbous, 69% of the Moon is Illuminated
Oct 13
Waxing Gibbous
Oct 18
Full
Oct 26
Last Quarter
Nov 3
New
Nov 9
First Quarter

Hourly Weather History & Observations

Time (CDT) Temp. Dew Point Humidity Pressure Visibility Wind Dir Wind Speed Gust Speed Precip Events Conditions
12:54 AM 66.0 °F 63.0 °F 90% 30.15 in 8.0 mi NW 6.9 mph - N/A   Overcast
1:54 AM 64.9 °F 62.1 °F 90% 30.17 in 8.0 mi NNW 6.9 mph - N/A   Mostly Cloudy
2:54 AM 66.0 °F 57.9 °F 75% 30.18 in 10.0 mi North 8.1 mph - N/A   Overcast
3:54 AM 63.0 °F 55.0 °F 75% 30.19 in 10.0 mi North 10.4 mph - N/A   Partly Cloudy
4:54 AM 61.0 °F 52.0 °F 72% 30.21 in 10.0 mi North 6.9 mph - N/A   Clear
5:54 AM 60.1 °F 50.0 °F 69% 30.24 in 10.0 mi North 8.1 mph - N/A   Clear
6:54 AM 57.9 °F 48.9 °F 72% 30.25 in 10.0 mi North 5.8 mph - N/A   Clear
7:54 AM 59.0 °F 48.0 °F 67% 30.28 in 10.0 mi North 5.8 mph - N/A   Partly Cloudy
8:54 AM 60.1 °F 48.0 °F 64% 30.30 in 10.0 mi North 4.6 mph - N/A   Scattered Clouds
9:54 AM 66.0 °F 48.9 °F 54% 30.32 in 10.0 mi NNE 8.1 mph - N/A   Clear
10:54 AM 69.1 °F 48.9 °F 49% 30.32 in 10.0 mi North 9.2 mph - N/A   Clear
11:54 AM 73.0 °F 51.1 °F 46% 30.31 in 10.0 mi North 8.1 mph - N/A   Clear
12:54 PM 75.0 °F 50.0 °F 41% 30.29 in 10.0 mi North 5.8 mph - N/A   Clear
1:54 PM 75.0 °F 46.0 °F 36% 30.28 in 10.0 mi North 11.5 mph - N/A   Clear
2:54 PM 75.9 °F 44.1 °F 32% 30.26 in 10.0 mi North 10.4 mph 16.1 mph N/A   Clear
3:54 PM 75.0 °F 43.0 °F 32% 30.26 in 10.0 mi NNE 12.7 mph 17.3 mph N/A   Clear
4:54 PM 73.0 °F 42.1 °F 33% 30.26 in 10.0 mi North 6.9 mph - N/A   Clear
5:54 PM 69.1 °F 43.0 °F 39% 30.27 in 10.0 mi North 5.8 mph - N/A   Clear
6:54 PM 64.0 °F 45.0 °F 50% 30.29 in 10.0 mi North 4.6 mph - N/A   Clear
7:54 PM 60.1 °F 44.1 °F 55% 30.29 in 10.0 mi Calm Calm - N/A   Clear
8:54 PM 60.1 °F 41.0 °F 49% 30.30 in 10.0 mi North 6.9 mph - N/A   Clear
9:54 PM 61.0 °F 41.0 °F 48% 30.31 in 10.0 mi North 8.1 mph - N/A   Clear
10:54 PM 55.0 °F 42.1 °F 62% 30.30 in 10.0 mi NE 5.8 mph - N/A   Clear
11:54 PM 54.0 °F 43.0 °F 66% 30.29 in 10.0 mi NE 6.9 mph - N/A   Clear